This is the latest recevied weather packets stored in our database for station/object W0AKY-13. If no packets are shown the sender has not sent any weather packets the latest 10 day(s).
| Time | Temp. | Humidity | Pressure | Rain* | Wind** | Luminosity | Snow |
|---|---|---|---|---|---|---|---|
| 1777648739 | 11.67° C | 56% | 1019.7 hPa | 0 mm | - | 438 W/m² | - |
| 1777648435 | 11.67° C | 56% | 1019.5 hPa | 0 mm | - | 424 W/m² | - |
| 1777648131 | 11.67° C | 57% | 1019.7 hPa | 0 mm | - | 410 W/m² | - |
| 1777647827 | 11.67° C | 59% | 1019.5 hPa | 0 mm | - | 397 W/m² | - |
| 1777647524 | 11.11° C | 58% | 1019.6 hPa | 0 mm | - | 385 W/m² | - |
| 1777647221 | 11.11° C | 59% | 1019.8 hPa | 0 mm | - | 370 W/m² | - |
| 1777646918 | 11.11° C | 59% | 1019.6 hPa | 0 mm | - | 358 W/m² | - |
| 1777646614 | 10.56° C | 61% | 1019.7 hPa | 0 mm | - | 345 W/m² | - |
| 1777646310 | 10.56° C | 59% | 1019.8 hPa | 0 mm | - | 331 W/m² | - |
| 1777646007 | 10.56° C | 61% | 1019.6 hPa | 0 mm | - | 313 W/m² | - |
| 1777645704 | 10.56° C | 61% | 1019.7 hPa | 0 mm | - | 305 W/m² | - |
| 1777645400 | 10° C | 62% | 1019.7 hPa | 0 mm | - | 109 W/m² | - |
| 1777645096 | 10° C | 63% | 1019.8 hPa | 0 mm | - | 36 W/m² | - |
| 1777644793 | 9.44° C | 64% | 1019.8 hPa | 0 mm | - | 34 W/m² | - |
| 1777644491 | 9.44° C | 65% | 1019.6 hPa | 0 mm | - | 33 W/m² | - |
| 1777644187 | 9.44° C | 65% | 1019.6 hPa | 0 mm | - | 32 W/m² | - |
| 1777643883 | 9.44° C | 67% | 1019.7 hPa | 0 mm | - | 32 W/m² | - |
| 1777643581 | 8.89° C | 68% | 1019.7 hPa | 0 mm | - | 32 W/m² | - |
| 1777643277 | 8.89° C | 69% | 1019.8 hPa | 0 mm | - | 31 W/m² | - |
| 1777642974 | 8.33° C | 69% | 1019.6 hPa | 0 mm | - | 30 W/m² | - |
| 1777642670 | 8.33° C | 71% | 1019.5 hPa | 0 mm | - | 29 W/m² | - |
| 1777642367 | 8.33° C | 71% | 1019.6 hPa | 0 mm | - | 29 W/m² | - |
| 1777642064 | 7.78° C | 72% | 1019.7 hPa | 0 mm | - | 28 W/m² | - |
| 1777641760 | 7.78° C | 71% | 1019.7 hPa | 0 mm | - | 27 W/m² | - |
| 1777641460 | 7.78° C | 73% | 1019.6 hPa | 0 mm | - | 35 W/m² | - |
* Rain latest hour (hover to see other rain measurements)
** Current wind speed in m/s (hover to see current wind gust speed)